sat.trackr.live / text

‹ back to catalog

EWS-G3 (GOES 14)

NORAD 35491 · 2009-033A

PAYLOAD ACTIVE UNKNOWN

§ Identity

Operator
Country
US
Launch date
2009-06-27
Launch site
AFETR
Launch vehicle
Mass (kg)
RCS (m²)
17.65

Purposes: comms, earth_obs

External: N2YO · Heavens-Above · Gunter

§ Orbital elements

Epoch: 2026-09-20T01:54:07.436736Z

Period
1,438.98 min
Inclination
1.9278°
Eccentricity
0.0002192
Mean motion
1.00071065 rev/d
Perigee alt
35,833.7 km
Apogee alt
35,852.2 km
Semi-major
42,221.1 km
B*
0.0000e+0
RAAN
81.6949°
Arg perigee
91.9116°
Mean anomaly
293.2596°
Rev number
754

§ Raw data

EWS-G3 (GOES 14)1 35491U 09033A   26263.07925274 -.00000088  00000+0  00000+0 0  99972 35491   1.9278  81.6949 0002192  91.9116 293.2596  1.00071065  7541

JSON: /api/v1/satellites/35491 · /tle

For live sub-satellite position, see the globe view (requires WebGL).

§ Visibility from observer

Set your observer location to see the next 7 days of passes ≥ 10°. The values pass through the URL so the page stays shareable.

No JS? Fill the form by hand. The geolocation button needs JavaScript.

§ Radio — SatNOGS DB

ModeDescriptionDownlinkUplink
BPSK CDA Telemetry 1.694 GHz

1 transmitter · refreshed weekly from db.satnogs.org